Find Kosmos-2013

NORAD ID: 19907 Int'l Des: 1989-025 Owner: UNKS Country: SU operational
LEOCIRCULAR

实时位置

正在加载3D地球...

关于 Kosmos-2013

正在加载描述...

即将过境

Passes for default location (London). Set your location on the main map for personalized predictions.

高度历史

Loading altitude history...

两行轨道根数

1 19907U 89025F 26104.71907068 -.00000005 00000-0 72960-4 0 9995
2 19907 74.0070 90.8515 0008974 111.7424 74.9829 12.48177013688524
Epoch: Apr 14, 2026 • Age: 13 hours

当前状态

高度 1474.2 km
速度 7.13 km/s
星下点 -7.68°S, 32.04°W
发射日期 Mar 24, 1989
运行时间 37 years
类型 other

技术详情

分类 Payload
质量 60.00 kg
干质量 60.00 kg
总质量 60.00 kg
长度 0.80 m
直径 0.80 m
跨度 0.80 m
形状 Poly
制造商 NPOPM
平台类型 Strela-1 11F625
阶段状态 In Orbit
所有者/国家 UNKS/SU

Most Searched